Location: Gisborne
(38.6530°S, 178.0040°E)
Time: 21:05:56
(UTC+12:00)

ISS - Visible Passes

Search period start: 16 September 2024 00:00
Search period end: 26 September 2024 00:00
Orbit: 414 x 424 km, 51.6° (Epoch: 16 September)

Date Brightness Start Highest point End Pass type
(mag) Time Alt. Az. Time Alt. Az. Time Alt. Az.
16 Sep -1.1 05:01:32 10° N 05:03:58 18° NE 05:06:26 10° E visible
17 Sep -0.6 04:15:55 10° NE 04:16:35 10° NE 04:17:14 10° ENE visible
18 Sep -3.2 05:02:36 13° NW 05:05:35 58° NE 05:08:59 10° ESE visible
19 Sep -2.3 04:17:49 29° NNE 04:18:32 32° NE 04:21:40 10° ESE visible
20 Sep -0.8 03:33:06 16° E 03:33:06 16° E 03:34:17 10° E visible
20 Sep -3.2 05:06:08 18° W 05:08:22 45° SW 05:11:44 10° SE visible
21 Sep -3.8 04:21:31 74° WSW 04:21:38 75° SW 04:25:08 10° SE visible
22 Sep -1.4 03:37:01 25° ESE 03:37:01 25° ESE 03:38:39 10° ESE visible
22 Sep -1.9 05:10:03 12° WSW 05:12:20 21° SSW 05:15:04 10° SSE visible
23 Sep -2.4 04:25:41 28° SW 04:25:56 28° SSW 04:29:02 10° SSE visible
24 Sep -1.5 03:41:29 24° SSE 03:41:29 24° SSE 03:43:11 10° SE visible
24 Sep -1.2 05:15:50 10° SW 05:17:29 13° SSW 05:19:08 10° SSE visible
25 Sep -0.1 02:57:26 10° SE 02:57:26 10° SE 02:57:28 10° SE visible
25 Sep -1.4 04:30:30 14° SW 04:31:26 15° SSW 04:33:38 10° SSE visible
